User: anonymous   Login
Location: *
(40.7873°S, 98.7174°E)
Time: 12:57:18
(UTC+00:00)
Language:

CBERS 1 LM4 rocket - Orbit

View from above orbital plane
View from above orbital plane
View from above satellite
View from above satellite

Ground track
Ground track

The orbit data is extracted from the following two-line orbital elements,

1 25942U 99057C   22228.00212044  .00000253  00000-0  97419-4 0  9995
2 25942  98.8340 226.5559 0099658  39.7124 321.1304 14.36286740196116
Epoch (UTC): 16 August 2022 00:03:03
Eccentricity: 0.0099658
inclination: 98.8340°
perigee height: 699 km
apogee height: 842 km
right ascension of ascending node: 226.5559°
argument of perigee: 39.7124°
revolutions per day: 14.36286740
mean anomaly at epoch: 321.1304°
orbit number at epoch: 19611

The dashed part of the orbit path shows where the satellite is in the earth's shadow,  

DLR